Time,TemperatureF,DewpointF,PressureIn,WindDirection,WindDirectionDegrees,WindSpeedMPH,WindSpeedGustMPH,Humidity,HourlyPrecipIn,Conditions,Clouds,dailyrainin,SoftwareType,DateUTC
2013-09-08 00:00:00,60.9,59.0,29.90,East,101,0.0,0.0,93,0.00,,,0.00,weatherlink.com 1.10,2013-09-08 04:00:00,
2013-09-08 00:15:00,61.1,59.0,29.90,East,101,0.0,0.0,93,0.00,,,0.00,weatherlink.com 1.10,2013-09-08 04:15:00,
2013-09-08 00:30:00,61.3,60.0,29.90,East,100,0.0,0.0,94,0.00,,,0.00,weatherlink.com 1.10,2013-09-08 04:30:00,
2013-09-08 00:45:00,61.5,60.0,29.89,East,101,0.0,0.0,94,0.00,,,0.00,weatherlink.com 1.10,2013-09-08 04:45:00,
2013-09-08 01:01:00,61.6,60.0,29.89,East,100,0.0,0.0,94,0.00,,,0.00,weatherlink.com 1.10,2013-09-08 05:01:00,
2013-09-08 01:16:00,61.7,60.0,29.89,East,100,0.0,0.0,94,0.00,,,0.00,weatherlink.com 1.10,2013-09-08 05:16:00,
2013-09-08 01:31:00,61.9,60.0,29.89,East,101,0.0,0.0,94,0.00,,,0.00,weatherlink.com 1.10,2013-09-08 05:31:00,
2013-09-08 01:46:00,61.9,60.0,29.89,East,101,0.0,0.0,94,0.00,,,0.00,weatherlink.com 1.10,2013-09-08 05:46:00,
2013-09-08 02:01:00,62.1,60.0,29.88,East,101,0.0,0.0,94,0.00,,,0.00,weatherlink.com 1.10,2013-09-08 06:01:00,
2013-09-08 02:16:00,62.3,61.0,29.88,East,101,0.0,0.0,94,0.00,,,0.00,weatherlink.com 1.10,2013-09-08 06:16:00,
2013-09-08 02:31:00,62.6,61.0,29.88,East,101,0.0,0.0,94,0.00,,,0.00,weatherlink.com 1.10,2013-09-08 06:31:00,
2013-09-08 02:46:00,62.8,61.0,29.88,East,100,0.0,0.0,94,0.00,,,0.00,weatherlink.com 1.10,2013-09-08 06:46:00,
2013-09-08 03:01:00,62.9,61.0,29.88,East,100,0.0,0.0,93,0.00,,,0.00,weatherlink.com 1.10,2013-09-08 07:01:00,
2013-09-08 03:16:00,63.0,61.0,29.88,East,100,0.0,0.0,93,0.00,,,0.00,weatherlink.com 1.10,2013-09-08 07:16:00,
2013-09-08 03:31:00,62.9,61.0,29.87,East,100,0.0,0.0,93,0.00,,,0.00,weatherlink.com 1.10,2013-09-08 07:31:00,
2013-09-08 03:46:00,62.9,61.0,29.86,East,101,0.0,0.0,93,0.00,,,0.00,weatherlink.com 1.10,2013-09-08 07:46:00,
2013-09-08 04:01:00,63.0,61.0,29.86,East,101,0.0,0.0,93,0.00,,,0.00,weatherlink.com 1.10,2013-09-08 08:01:00,
2013-09-08 04:16:00,63.2,61.0,29.85,East,101,0.0,0.0,93,0.00,,,0.00,weatherlink.com 1.10,2013-09-08 08:16:00,
2013-09-08 04:31:00,63.3,62.0,29.86,East,100,0.0,0.0,94,0.00,,,0.00,weatherlink.com 1.10,2013-09-08 08:31:00,
2013-09-08 04:46:00,63.4,62.0,29.85,East,101,0.0,0.0,94,0.00,,,0.00,weatherlink.com 1.10,2013-09-08 08:46:00,
2013-09-08 05:01:00,63.5,62.0,29.85,East,101,0.0,0.0,94,0.00,,,0.00,weatherlink.com 1.10,2013-09-08 09:01:00,
2013-09-08 05:16:00,63.5,62.0,29.85,East,101,0.0,0.0,93,0.00,,,0.00,weatherlink.com 1.10,2013-09-08 09:16:00,
2013-09-08 05:31:00,63.1,61.0,29.85,East,100,0.0,0.0,93,0.00,,,0.00,weatherlink.com 1.10,2013-09-08 09:31:00,
2013-09-08 05:46:00,62.5,61.0,29.85,East,101,0.0,0.0,93,0.00,,,0.00,weatherlink.com 1.10,2013-09-08 09:46:00,
2013-09-08 06:01:00,61.8,60.0,29.85,East,101,0.0,0.0,94,0.00,,,0.00,weatherlink.com 1.10,2013-09-08 10:01:00,
2013-09-08 06:16:00,61.3,60.0,29.86,East,100,0.0,0.0,94,0.00,,,0.00,weatherlink.com 1.10,2013-09-08 10:16:00,
2013-09-08 06:31:00,61.5,60.0,29.85,East,101,0.0,0.0,96,0.00,,,0.00,weatherlink.com 1.10,2013-09-08 10:31:00,
2013-09-08 06:46:00,61.4,60.0,29.85,East,100,0.0,0.0,96,0.00,,,0.00,weatherlink.com 1.10,2013-09-08 10:46:00,
2013-09-08 07:01:00,61.3,60.0,29.86,East,100,0.0,0.0,96,0.00,,,0.00,weatherlink.com 1.10,2013-09-08 11:01:00,
2013-09-08 07:16:00,61.4,60.0,29.86,East,98,0.0,0.0,96,0.00,,,0.00,weatherlink.com 1.10,2013-09-08 11:16:00,
2013-09-08 07:31:00,61.5,61.0,29.86,East,100,0.0,0.0,97,0.00,,,0.00,weatherlink.com 1.10,2013-09-08 11:31:00,
2013-09-08 07:46:00,62.0,61.0,29.86,East,98,0.0,0.0,97,0.00,,,0.00,weatherlink.com 1.10,2013-09-08 11:46:00,
2013-09-08 08:01:00,62.7,62.0,29.86,NW,321,0.0,1.0,97,0.00,,,0.00,weatherlink.com 1.10,2013-09-08 12:01:00,
2013-09-08 08:16:00,63.2,62.0,29.86,NW,322,0.0,0.0,96,0.00,,,0.00,weatherlink.com 1.10,2013-09-08 12:16:00,
2013-09-08 08:31:00,63.8,62.0,29.85,NNE,21,0.0,0.0,95,0.00,,,0.00,weatherlink.com 1.10,2013-09-08 12:31:00,
2013-09-08 08:46:00,64.5,63.0,29.85,NE,44,0.0,0.0,93,0.00,,,0.00,weatherlink.com 1.10,2013-09-08 12:46:00,
2013-09-08 09:01:00,65.8,63.0,29.85,ENE,75,0.0,1.0,91,0.00,,,0.00,weatherlink.com 1.10,2013-09-08 13:01:00,
2013-09-08 09:16:00,66.8,64.0,29.85,ENE,77,0.0,0.0,89,0.00,,,0.00,weatherlink.com 1.10,2013-09-08 13:16:00,
2013-09-08 09:31:00,68.2,64.0,29.85,East,91,0.0,1.0,85,0.00,,,0.00,weatherlink.com 1.10,2013-09-08 13:31:00,
2013-09-08 09:47:00,70.1,65.0,29.86,ENE,67,0.0,1.0,83,0.00,,,0.00,weatherlink.com 1.10,2013-09-08 13:47:00,
2013-09-08 10:01:00,71.7,65.0,29.86,SSE,168,0.0,2.0,79,0.00,,,0.00,weatherlink.com 1.10,2013-09-08 14:01:00,
2013-09-08 10:16:00,73.8,66.0,29.86,West,277,0.0,3.0,77,0.00,,,0.00,weatherlink.com 1.10,2013-09-08 14:16:00,
2013-09-08 10:31:00,75.1,67.0,29.86,West,277,0.0,1.0,75,0.00,,,0.00,weatherlink.com 1.10,2013-09-08 14:31:00,
2013-09-08 10:46:00,76.8,65.0,29.85,SSE,151,0.0,6.0,68,0.00,,,0.00,weatherlink.com 1.10,2013-09-08 14:46:00,
2013-09-08 11:01:00,78.0,67.0,29.85,West,264,0.0,4.0,69,0.00,,,0.00,weatherlink.com 1.10,2013-09-08 15:01:00,
2013-09-08 11:16:00,79.0,68.0,29.86,ESE,110,0.0,7.0,69,0.00,,,0.00,weatherlink.com 1.10,2013-09-08 15:16:00,
2013-09-08 11:31:00,79.8,67.0,29.85,WSW,253,0.0,4.0,64,0.00,,,0.00,weatherlink.com 1.10,2013-09-08 15:31:00,
2013-09-08 11:46:00,80.6,67.0,29.85,ESE,117,3.0,3.0,64,0.00,,,0.00,weatherlink.com 1.10,2013-09-08 15:46:00,
2013-09-08 12:01:00,80.8,68.0,29.84,SSE,152,0.0,3.0,65,0.00,,,0.00,weatherlink.com 1.10,2013-09-08 16:01:00,
2013-09-08 12:16:00,79.9,69.0,29.84,SE,128,0.0,1.0,69,0.00,,,0.00,weatherlink.com 1.10,2013-09-08 16:16:00,
2013-09-08 12:31:00,80.5,69.0,29.85,West,262,1.0,2.0,69,0.00,,,0.00,weatherlink.com 1.10,2013-09-08 16:31:00,
2013-09-08 12:46:00,78.8,67.0,29.85,SSE,155,0.0,5.0,68,0.00,,,0.00,weatherlink.com 1.10,2013-09-08 16:46:00,
2013-09-08 13:01:00,77.7,69.0,29.85,NW,321,0.0,1.0,74,0.00,,,0.00,weatherlink.com 1.10,2013-09-08 17:01:00,
2013-09-08 13:16:00,76.8,68.0,29.85,NNW,335,0.0,3.0,73,0.00,,,0.00,weatherlink.com 1.10,2013-09-08 17:16:00,
2013-09-08 13:31:00,76.3,68.0,29.85,NW,305,0.0,1.0,76,0.00,,,0.00,weatherlink.com 1.10,2013-09-08 17:31:00,
2013-09-08 13:46:00,78.8,69.0,29.86,ESE,111,0.0,3.0,71,0.00,,,0.00,weatherlink.com 1.10,2013-09-08 17:46:00,
2013-09-08 14:01:00,80.1,70.0,29.85,WNW,284,2.0,4.0,70,0.00,,,0.00,weatherlink.com 1.10,2013-09-08 18:01:00,
2013-09-08 14:16:00,82.3,69.0,29.86,WNW,287,0.0,3.0,64,0.00,,,0.00,weatherlink.com 1.10,2013-09-08 18:16:00,
2013-09-08 14:31:00,81.8,69.0,29.86,SE,132,0.0,4.0,65,0.00,,,0.00,weatherlink.com 1.10,2013-09-08 18:31:00,
2013-09-08 14:46:00,82.0,66.0,29.86,WNW,296,0.0,4.0,59,0.00,,,0.00,weatherlink.com 1.10,2013-09-08 18:46:00,
2013-09-08 15:01:00,83.3,68.0,29.86,SW,236,0.0,2.0,61,0.00,,,0.00,weatherlink.com 1.10,2013-09-08 19:01:00,
2013-09-08 15:16:00,82.8,67.0,29.86,NW,310,0.0,2.0,60,0.00,,,0.00,weatherlink.com 1.10,2013-09-08 19:16:00,
2013-09-08 15:31:00,81.9,67.0,29.86,West,276,2.0,4.0,61,0.00,,,0.00,weatherlink.com 1.10,2013-09-08 19:31:00,
2013-09-08 15:46:00,83.1,68.0,29.86,West,271,1.0,1.0,61,0.00,,,0.00,weatherlink.com 1.10,2013-09-08 19:46:00,
2013-09-08 16:02:00,82.5,67.0,29.86,West,259,0.0,2.0,59,0.00,,,0.00,weatherlink.com 1.10,2013-09-08 20:02:00,
2013-09-08 16:17:00,83.0,66.0,29.86,WNW,300,2.0,2.0,57,0.00,,,0.00,weatherlink.com 1.10,2013-09-08 20:17:00,
2013-09-08 16:32:00,82.1,68.0,29.86,ESE,120,0.0,1.0,62,0.00,,,0.00,weatherlink.com 1.10,2013-09-08 20:32:00,
2013-09-08 16:47:00,83.6,67.0,29.86,West,281,0.0,2.0,57,0.00,,,0.00,weatherlink.com 1.10,2013-09-08 20:47:00,
2013-09-08 17:02:00,80.6,66.0,29.87,WSW,250,0.0,2.0,61,0.00,,,0.00,weatherlink.com 1.10,2013-09-08 21:02:00,
2013-09-08 17:17:00,81.5,66.0,29.88,West,273,0.0,4.0,60,0.00,,,0.00,weatherlink.com 1.10,2013-09-08 21:17:00,
2013-09-08 17:32:00,80.9,65.0,29.89,WNW,283,0.0,2.0,58,0.00,,,0.00,weatherlink.com 1.10,2013-09-08 21:32:00,
2013-09-08 17:47:00,81.4,65.0,29.89,NW,310,0.0,2.0,57,0.00,,,0.00,weatherlink.com 1.10,2013-09-08 21:47:00,
2013-09-08 18:02:00,79.9,63.0,29.89,WSW,242,0.0,0.0,57,0.00,,,0.00,weatherlink.com 1.10,2013-09-08 22:02:00,
2013-09-08 18:17:00,77.3,62.0,29.90,East,93,0.0,0.0,60,0.00,,,0.00,weatherlink.com 1.10,2013-09-08 22:17:00,
2013-09-08 18:32:00,75.0,62.0,29.91,SW,235,0.0,0.0,64,0.00,,,0.00,weatherlink.com 1.10,2013-09-08 22:32:00,
2013-09-08 18:47:00,73.3,62.0,29.91,North,5,0.0,1.0,68,0.00,,,0.00,weatherlink.com 1.10,2013-09-08 22:47:00,
2013-09-08 19:02:00,71.5,61.0,29.91,ESE,113,0.0,1.0,70,0.00,,,0.00,weatherlink.com 1.10,2013-09-08 23:02:00,
2013-09-08 19:17:00,70.1,59.0,29.93,ESE,115,0.0,0.0,69,0.00,,,0.00,weatherlink.com 1.10,2013-09-08 23:17:00,
2013-09-08 19:32:00,69.0,57.0,29.94,ESE,113,0.0,1.0,65,0.00,,,0.00,weatherlink.com 1.10,2013-09-08 23:32:00,
2013-09-08 19:47:00,67.9,56.0,29.95,West,277,0.0,0.0,66,0.00,,,0.00,weatherlink.com 1.10,2013-09-08 23:47:00,
2013-09-08 20:02:00,67.0,56.0,29.96,SE,138,0.0,0.0,69,0.00,,,0.00,weatherlink.com 1.10,2013-09-09 00:02:00,
2013-09-08 20:17:00,65.6,55.0,29.97,SE,138,0.0,0.0,69,0.00,,,0.00,weatherlink.com 1.10,2013-09-09 00:17:00,
2013-09-08 20:33:00,65.0,54.0,29.98,ENE,65,0.0,1.0,67,0.00,,,0.00,weatherlink.com 1.10,2013-09-09 00:33:00,
2013-09-08 20:48:00,64.0,54.0,29.99,ENE,62,0.0,0.0,69,0.00,,,0.00,weatherlink.com 1.10,2013-09-09 00:48:00,
2013-09-08 21:03:00,63.0,53.0,30.00,ENE,63,0.0,0.0,70,0.00,,,0.00,weatherlink.com 1.10,2013-09-09 01:03:00,
2013-09-08 21:18:00,62.0,52.0,30.00,ENE,63,0.0,0.0,71,0.00,,,0.00,weatherlink.com 1.10,2013-09-09 01:18:00,
2013-09-08 21:33:00,61.2,52.0,30.01,ENE,63,0.0,0.0,72,0.00,,,0.00,weatherlink.com 1.10,2013-09-09 01:33:00,
2013-09-08 21:48:00,59.9,52.0,30.02,ENE,63,0.0,0.0,74,0.00,,,0.00,weatherlink.com 1.10,2013-09-09 01:48:00,
2013-09-08 22:03:00,59.6,52.0,30.03,East,84,0.0,0.0,76,0.00,,,0.00,weatherlink.com 1.10,2013-09-09 02:03:00,
2013-09-08 22:18:00,58.9,51.0,30.04,East,85,0.0,0.0,76,0.00,,,0.00,weatherlink.com 1.10,2013-09-09 02:18:00,
2013-09-08 22:33:00,58.1,51.0,30.04,East,85,0.0,0.0,77,0.00,,,0.00,weatherlink.com 1.10,2013-09-09 02:33:00,
2013-09-08 22:48:00,57.5,51.0,30.05,East,84,0.0,0.0,80,0.00,,,0.00,weatherlink.com 1.10,2013-09-09 02:48:00,
2013-09-08 23:03:00,57.0,51.0,30.05,East,85,0.0,0.0,81,0.00,,,0.00,weatherlink.com 1.10,2013-09-09 03:03:00,
2013-09-08 23:18:00,56.0,51.0,30.05,East,83,0.0,0.0,83,0.00,,,0.00,weatherlink.com 1.10,2013-09-09 03:18:00,
2013-09-08 23:33:00,55.0,51.0,30.06,East,85,0.0,0.0,86,0.00,,,0.00,weatherlink.com 1.10,2013-09-09 03:33:00,
2013-09-08 23:48:00,54.6,51.0,30.06,East,84,0.0,0.0,88,0.00,,,0.00,weatherlink.com 1.10,2013-09-09 03:48:00,